COSMOS 397 DEB

基本信息
目录编号:
5156
目录名称:
COSMOS 397 DEB
国际标识:
1971-015AK
轨道中心:
EARTH
物体状态:
在轨
发射日期:
1971-02-25 UTC
轨道信息
数据来源: 国际轨道数据
星历时间: 2026-09-11T20:29:35+0800
半长轴: 7376.334km
偏心率: 0.0635776
轨道倾角: 65.679°
近地点辐角: 332.818°
升交点赤经: 287.586°
平近点角: 24.087°
近地点: 529.227km
远地点: 1467.167km
周期: 105.080分钟
每日圈数: 13.70383
详细信息
发射场:
TTMTR
轨道高度:
LEO
数据来源:
AOE Integration Group
参考系:
TEME
时间系统:
UTC
历元类型:
SGP4
2D轨道图
3D轨道图
轨道高度分析图
轨道倾角分析图
轨道综合分析图
查看轨道综合分析图